Skip Page Navigation
NASA JPL Caltech
NASA Logo - Jet Propulsion Laboratory + View the NASA Portal
+ Center for Near-Earth Object Studies
JPL Home Earth Solar System Stars & Galaxies Technology
JPL Solar System Dynamics
BODIES ORBITS EPHEMERIDES TOOLS PHYSICAL DATA DISCOVERY FAQ SITE MAP
JPL Small-Body Database Browser
Search: [ help ]  
216614 (2002 TR376)
Classification: Main-belt Asteroid          SPK-ID: 2216614
Ephemeris | Orbit Diagram | Orbital Elements | Mission Design | Physical Parameters | Discovery Circumstances | Close-Approach Data ]

[ show orbit diagram ]
Orbital Elements at Epoch 2459200.5 (2020-Dec-17.0) TDB
Reference: JPL 12 (heliocentric ecliptic J2000)
 Element Value Uncertainty (1-sigma)   Units 
e .1160777182310361 5.9809e-08  
a 2.457449311300133 2.6196e-08 au
q 2.172194202575982 1.6028e-07 au
i 5.604085683196288 6.3339e-06 deg
node 239.1796484228285 6.764e-05 deg
peri 48.22367008212176 8.6237e-05 deg
M 317.5516538572236 6.2764e-05 deg
tp 2459366.414198383132
(2021-May-31.91419838)
0.00024733 TDB
period 1407.101026198443
3.85
2.2499e-05
6.16e-08
d
yr
n .2558451691081556 4.0909e-09 deg/d
Q 2.742704420024284 2.9236e-08 au
  Orbit Determination Parameters
   # obs. used (total)      149  
   data-arc span      6443 days (17.64 yr)  
   first obs. used      2002-08-28  
   last obs. used      2020-04-18  
   planetary ephem.      DE441  
   SB-pert. ephem.      SB441-N16  
   condition code      0  
   norm. resid. RMS      .53349  
   source      ORB  
   producer      Otto Matic  
   solution date      2021-Apr-13 23:55:33  

Additional Information
 Earth MOID = 1.15872 au 
 Jupiter MOID = 2.38745 au 
 T_jup = 3.476 
[ show covariance matrix ]

Ephemeris | Orbit Diagram | Orbital Elements | Mission Design | Physical Parameters | Discovery Circumstances | Close-Approach Data ]

Physical Parameter Table
Parameter Symbol Value Units Sigma Reference Notes
absolute magnitude H 17.30   n/a E2021B55  

216614 (2002 TR376)          Discovered 2002-Oct-05 by NEAT at Palomar
Reference: 20090707/Numbers.arcLast Updated: 2009-07-09

[ show close-approach data ]
Ephemeris | Orbit Diagram | Orbital Elements | Mission Design | Physical Parameters | Discovery Circumstances | Close-Approach Data ]
ABOUT SSD CREDITS/AWARDS PRIVACY/COPYRIGHT GLOSSARY LINKS
FirstGov 2021-Jun-21 06:26 UT
(server date/time)  
NASA Home Page
Site Manager:   Ryan S. Park
Webmaster  Alan B. Chamberlin